• Join FlightAware (Why Join?)
  • Login
  • US Flag GB Flag 
02:33 EDT


 

Airport Tracker/Info


-or-


 

Live Flight TrackerFlight Track Log ✈ SWA1969 ✈ 10-Apr-2013 ✈ KMDW - KMHT

Flight Track Log - Related Links

Times and Time Zones

All times are in EDT time to prevent confusion due to time zone crossing. See the SWA1969 flight status page for this flight to view local times or setup timezone preferences in your user account.

Time Position Orientation Groundspeed Altitude Reporting Facility
EDT Latitude Longitude Course Direction KTS MPH feet Rate Location/Type
11:54 41.8000 -87.6833 14° North 190 219 2,900  Level Chicago TRACON
11:55 41.8167 -87.6000 75° East 255 293 4,000 600 Climbing Chicago TRACON
11:56 41.8575 -87.5644 33° Northeast 246 283 4,000  Level Chicago Center
11:57 41.9294 -87.5542 North 253 291 4,000 1,500 Level Chicago Center
11:58 42.0006 -87.5717 350° North 271 312 7,200 3,840 Climbing Chicago Center
11:59 42.3690 -87.6770 14° North  Level FlightAware Approximate
11:59 42.0819 -87.5808 355° North 295 339 11,900  Level Chicago Center
12:00 42.1625 -87.5861 357° North 294 338 15,000 2,040 Climbing Chicago Center
12:01 42.2483 -87.5928 357° North 308 354 16,100 2,580 Climbing Chicago Center
12:02 42.3628 -87.6011 357° North 343 395 20,300 3,240 Climbing Chicago Center
12:03 42.4658 -87.6075 357° North 368 423 22,800 2,280 Climbing Chicago Center
12:04 42.5806 -87.6158 357° North 410 472 25,000 2,400 Climbing Chicago Center
12:05 42.7036 -87.5722 15° North 459 528 27,800 1,920 Climbing Chicago Center
12:06 42.8181 -87.4797 31° Northeast 476 548 29,000 1,260 Climbing Chicago Center
12:07 42.9228 -87.3708 37° Northeast 483 556 30,500 1,800 Climbing Chicago Center
12:08 42.9481 -87.2003 78° East 491 565 32,700 1,200 Climbing Chicago Center
12:09 42.9681 -86.9767 83° East 495 570 33,000 780 Climbing Chicago Center
12:10 42.9847 -86.7886 83° East 499 574 34,400 1,980 Climbing Chicago Center
12:11 43.0003 -86.6072 83° East 488 562 37,100 1,800 Climbing Chicago Center
12:12 43.0144 -86.4303 84° East 473 544 38,200 1,140 Climbing Chicago Center
12:13 43.0294 -86.2472 84° East 482 555 39,500 1,320 Climbing Chicago Center
12:14 43.0442 -86.0561 84° East 486 559 41,000 720 Climbing Chicago Center
12:15 43.0583 -85.8758 84° East 480 552 41,000  Level Chicago Center
12:16 43.0725 -85.6808 84° East 486 559 41,000  Level Chicago Center
12:17 43.0856 -85.5028 84° East 477 549 41,000  Level Chicago Center
12:18 43.0997 -85.3217 84° East 478 550 41,000  Level Chicago Center
12:19 43.1131 -85.1408 84° East 479 551 41,000  Level Chicago Center
12:20 43.1253 -84.9578 85° East 483 556 41,000  Level Chicago Center
12:21 43.1319 -84.8394 86° East 480 552 41,000  Level Cleveland Center
12:22 43.1636 -84.6567 77° East 480 552 41,000  Level Cleveland Center
12:23 43.1992 -84.4767 75° East 480 552 41,000  Level Cleveland Center
12:24 43.2383 -84.2939 74° East 490 564 41,000  Level Cleveland Center
12:25 43.2794 -84.1167 72° East 490 564 41,000  Level Cleveland Center
12:26 43.3178 -83.9503 72° East 490 564 41,000  Level Cleveland Center
12:27 43.3539 -83.7753 74° East 490 564 41,000  Level Cleveland Center
12:28 43.3942 -83.5944 73° East 490 564 41,000  Level Cleveland Center
12:29 43.4364 -83.4136 72° East 490 564 41,000  Level Cleveland Center
12:30 43.4697 -83.2292 76° East 490 564 41,000  Level Cleveland Center
12:31 43.4819 -83.0522 85° East 484 557 41,000  Level Cleveland Center
12:32 43.4922 -82.8608 86° East 484 557 41,000  Level Cleveland Center
12:33 43.5019 -82.6839 86° East 479 551 41,000  Level Cleveland Center
12:33 43.5000 -82.5667 91° East 490 564 41,000  Level Toronto Center
12:34 43.5008 -82.4950 89° East 479 551 41,000  Level Cleveland Center
12:35 43.4914 -82.3086 94° East 479 551 41,000  Level Cleveland Center
12:36 43.4794 -82.1194 95° East 485 558 41,000  Level Cleveland Center
12:36 43.4500 -82.0167 112° Southeast 500 575 41,000  Level Toronto Center
12:37 43.4667 -81.8333 83° East 500 575 41,000  Level Toronto Center
12:38 43.4500 -81.6333 96° East 500 575 41,000  Level Toronto Center
12:39 43.4333 -81.4500 97° East 500 575 41,000  Level Toronto Center
12:40 43.4167 -81.2667 97° East 500 575 41,000  Level Toronto Center
12:41 43.4000 -81.0833 97° East 500 575 41,000  Level Toronto Center
12:42 43.3833 -80.8667 96° East 500 575 41,000  Level Toronto Center
12:43 43.4000 -80.6833 83° East 500 575 41,000  Level Toronto Center
12:44 43.3833 -80.5000 97° East 500 575 41,000  Level Toronto Center
12:45 43.3667 -80.3167 97° East 500 575 41,000  Level Toronto Center
12:46 43.3500 -80.1167 96° East 500 575 41,000  Level Toronto Center
12:47 43.3333 -79.9333 97° East 500 575 41,000  Level Toronto Center
12:48 43.3333 -79.7167 90° East 500 575 41,000  Level Toronto Center
12:49 43.3167 -79.5333 97° East 500 575 41,000  Level Toronto Center
12:50 43.3000 -79.3500 97° East 500 575 41,000  Level Toronto Center
12:51 43.2833 -79.1833 98° East 500 575 41,000  Level Toronto Center
12:52 43.2667 -78.9667 96° East 500 575 41,000  Level Toronto Center
12:53 43.2500 -78.7833 97° East 510 587 41,000  Level Toronto Center
12:54 43.2500 -78.6000 90° East 510 587 41,000  Level Toronto Center
12:55 43.2167 -78.4000 103° East 510 587 41,000  Level Toronto Center
12:56 43.2181 -78.2414 89° East 500 575 41,000  Level Cleveland Center
12:57 43.1994 -78.0514 98° East 500 575 41,000  Level Cleveland Center
12:58 43.1828 -77.8614 97° East 500 575 41,000 -120 Level Cleveland Center
12:59 43.1678 -77.6769 96° East 500 575 40,800 -600 Descending Cleveland Center
13:00 43.1503 -77.4869 97° East 500 575 39,800 -660 Descending Cleveland Center
13:02 43.1158 -77.1511 98° East 503 579 39,000 -300 Descending Boston Center
13:03 43.0833 -76.9000 100° East 490 564 39,000  Level Toronto Center
13:04 43.0667 -76.6833 96° East 490 564 39,000  Level Toronto Center
13:05 43.0500 -76.5333 99° East 490 564 39,000  Level Toronto Center
13:06 43.0333 -76.3333 96° East 480 552 39,000  Level Toronto Center
13:07 43.0256 -76.2150 95° East 486 559 39,000  Level Boston Center
13:08 43.0064 -76.0378 98° East 481 554 39,000  Level Boston Center
13:09 42.9869 -75.8550 98° East 481 554 39,000  Level Boston Center
13:10 42.9672 -75.6750 98° East 486 559 39,000 -240 Level Boston Center
13:11 42.9450 -75.4978 100° East 486 559 38,600 -720 Descending Boston Center
13:12 42.9264 -75.3297 99° East 486 559 37,600 -1,020 Descending Boston Center
13:13 42.9081 -75.1417 98° East 486 559 36,700 -900 Descending Boston Center
13:14 42.8872 -74.9594 99° East 486 559 35,800 -900 Descending Boston Center
13:15 42.8642 -74.7769 100° East 486 559 35,000 -420 Descending Boston Center
13:16 42.8447 -74.5922 98° East 491 565 35,000 -300 Level Boston Center
13:17 42.8208 -74.4158 100° East 479 551 34,400 -960 Descending Boston Center
13:18 42.8197 -74.2375 90° East 474 545 33,200 -2,040 Descending Boston Center
13:19 42.8183 -74.0592 91° East 469 540 30,500 -2,460 Descending Boston Center
13:20 42.8186 -73.8836 90° East 469 540 28,200 -2,220 Descending Boston Center
13:21 42.8183 -73.7111 90° East 457 526 26,100 -2,040 Descending Boston Center
13:22 42.8161 -73.5411 91° East 452 520 24,200 -1,440 Descending Boston Center
13:23 42.8156 -73.3797 90° East 444 511 23,200 -1,020 Descending Boston Center
13:24 42.8125 -73.2156 91° East 432 497 22,200 -1,020 Descending Boston Center
13:25 42.8094 -73.0542 91° East 426 490 21,200 -1,080 Descending Boston Center
13:26 42.8061 -72.8731 91° East 428 493 20,100 -1,140 Descending Boston Center
13:27 42.8064 -72.7344 90° East 409 471 19,000 -1,500 Descending Boston Center
13:28 42.8025 -72.5817 92° East 397 457 17,100 -1,980 Descending Boston Center
13:29 42.7983 -72.4344 92° East 392 451 15,100 -1,980 Descending Boston Center
13:30 42.7964 -72.2872 91° East 386 444 13,200 -1,920 Descending Boston Center
13:31 42.8044 -72.1431 86° East 381 438 11,300 -1,800 Descending Boston Center
13:32 42.8164 -71.9928 84° East 376 433 9,600 -1,440 Descending Boston Center
13:33 42.8264 -71.8825 83° East 342 394 8,400 -1,380 Descending Boston Center
13:34 42.7922 -71.7639 111° Southeast 303 349 6,900 -1,200 Descending Boston Center
13:35 42.7564 -71.6881 123° Southeast 274 315 6,100 -1,200 Descending Boston Center
13:36 42.7581 -71.6172 88° East 175 201 4,500 -1,380 Descending Boston Center
13:37 42.8058 -71.5967 18° North 147 169 3,400 -1,140 Descending Boston Center
13:38 42.8511 -71.5453 40° Northeast 177 204 2,300 -1,020 Descending Boston Center
13:39 42.8800 -71.5081 43° Northeast 177 204 1,500 -780 Descending Boston Center
13:40 42.9089 -71.4733 41° Northeast 135 155 800 -600 Descending Boston Center
13:41 42.9339 -71.4447 40° Northeast 129 148 300 9,000 Descending Boston Center
13:42 42.9606 -71.4158 38° Northeast 129 148 19,000 9,420 Climbing Boston Center
13:43 42.9853 -71.3872 40° Northeast 129 148 19,000  Level Boston Center
13:44 43.0122 -71.3583 38° Northeast 129 148 19,000  Level Boston Center
13:46 42.9328 -71.4358 316° Northwest  Level Estimated
13:53 42.9328 -71.4358 316° Northwest  Level Estimated
13:54 42.9328 -71.4358 316° Northwest  Level Estimated
13:55 42.9328 -71.4358 316° Northwest  Level Estimated
13:56 42.9328 -71.4358 316° Northwest  Level Estimated
13:57 42.9328 -71.4358 316° Northwest  Level Estimated
13:58 42.9328 -71.4358 316° Northwest  Level Estimated
13:59 42.9328 -71.4358 316° Northwest  Level Estimated